SCP
0 0 0 0 0 0 0 0 0 0 0 0 0 0 0 0 0 0 0 0 0 0 0 0 0 0 0
0 0 0 0 0 0 0 0 0 0 0 0 0 0 0 0 0 0 0 0 0 0 0 0 0 0 0
0 0 0 0 0 0 0 0 0 0 0 0 0 0 0 0 0 0 0 0 0 0 0 0 0 0 0
0 0 0 0 0 0 0 0 0 0 0 0 0 0 0 0 0 0 0 0 0 0 0 0 0 0 0
0 0 0 0 0 0 0 0 0 0 0 0 0 0 0 0 0 0 0 0 0 0 0 0 0 0 0
0 0 0 0 0 0 0 0 0 0 0 0 0 0 0 0 0 0 0 0 0 0 0 0 0 0 0
0 0 0 0 0 0 0 0 0 0 0 0 0 0 0 0 0 0 0 0 0 0 0 0 0 0 0
0 0 0 0 0 0 0 0 0 0 0 0 0 0 0 0 0 0 0 0 0 0 0 0 0 0 0
0 0 0 0 0 0 0 0 0 0 0 0 0 0 0 0 0 0 0 0 0 0 0 0 0 0 0
0 0 0 0 0 0 0 0 0 0 0 0 0 0 0 0 0 0 0 0 0 0 0 0 0 0 0
0 0 0 0 0 0 0 0 0 0 0 0 0 0 0 0 0 0 0 0 0 0 0 0 -0 -0 -0
0 0 0 0 0 0 0 0 0 0 0 0 0 0 0 0 0 0 0 0 0 0 0 -0 -0 0 0
0 0 0 0 0 0 0 0 0 0 0 0 0 0 0 0 0 0 0 0 0 0 0 -0 -0 -0 -0
0 0 0 0 0 0 0 0 0 0 0 0 0 0 0 0 0 0 0 0 0 0 0 -0 -0 -0 -0
0 0 0 0 0 0 0 0 0 0 0 0 0 0 0 0 0 0 0 0 0 0 -0 -0 -0 -0 0
0 0 0 0 0 0 0 0 0 0 0 0 0 0 0 0 -0 -0 -0 0 0 0 -0 -0 0 0 0
0 0 0 0 0 0 0 0 0 0 0 0 0 -0 0 0 0 -0 -0 0 0 0 -0 -0 0 0 0
Wind_Speed_500mb
74 73 70 69 67 60 61 61 69 64 59 59 57 62 64 64 65 66 66 66 65 67 66 65 66 66 66
70 71 72 76 67 66 65 69 69 65 57 63 60 63 61 60 61 65 63 65 68 69 69 67 66 66 66
73 71 77 75 76 74 79 75 73 76 67 71 60 57 56 63 59 60 65 63 62 62 63 63 63 62 62
67 74 75 68 71 81 80 80 84 79 79 64 58 71 69 62 62 61 57 57 57 58 61 63 64 65 64
68 74 67 70 79 75 83 89 85 84 74 72 85 78 76 70 68 61 57 58 62 63 61 62 65 64 64
71 69 77 75 73 72 82 83 85 76 68 96 85 85 80 75 69 65 62 60 58 64 60 58 57 56 57
74 74 74 72 71 74 72 71 83 91 92 95 84 87 76 78 70 65 50 46 52 52 50 54 58 61 61
67 67 62 61 64 68 70 75 83 79 74 78 84 79 83 80 69 50 50 49 46 52 55 52 54 56 58
54 53 52 57 51 54 60 67 79 75 75 71 76 92 90 81 67 65 67 57 54 45 46 47 49 52 59
64 64 57 52 47 49 56 63 71 74 70 68 78 78 62 67 76 77 71 62 54 54 45 42 41 44 50
63 58 55 51 54 56 56 60 67 73 69 58 72 70 60 81 88 84 78 70 64 55 43 40 43 44 53
58 59 58 57 59 59 56 57 57 66 67 56 63 64 65 78 87 88 80 70 64 57 52 54 54 52 52
56 56 57 61 61 62 60 55 58 60 57 57 57 56 55 68 81 83 83 75 53 55 67 67 69 65 66
55 60 59 60 63 62 68 66 74 70 57 58 53 51 60 66 71 81 72 72 71 71 71 77 72 66 65
59 60 62 67 67 65 65 71 71 74 72 58 53 56 61 64 68 70 70 74 76 77 78 80 79 72 69
57 61 69 69 70 67 66 64 67 68 69 66 70 70 70 68 52 63 74 82 81 76 71 75 86 81 73
59 66 68 69 67 67 65 64 66 67 68 72 69 64 72 73 75 53 64 77 71 75 71 75 78 83 72
Wind_Direction_500mb
305 310 314 318 320 317 315 314 314 315 305 302 300 297 296 296 295 293 292 290 288 285 283 279 277 275 273
311 319 320 321 320 319 320 320 315 316 309 303 302 300 297 296 295 294 293 291 287 283 280 279 277 275 274
315 317 319 320 321 322 321 319 319 318 313 314 308 307 304 299 297 293 291 290 286 284 283 282 279 277 274
309 314 317 313 315 316 317 317 318 318 317 317 313 318 314 313 307 309 300 293 289 287 286 283 281 279 277
309 311 310 311 314 315 313 316 315 317 315 316 318 318 318 317 315 311 306 298 292 288 286 283 281 278 277
308 305 306 310 312 311 310 313 310 315 308 311 317 316 320 320 318 313 306 297 293 290 288 284 283 281 279
302 306 308 309 308 309 311 308 302 304 308 306 314 315 321 316 318 318 312 303 296 293 292 288 283 279 277
307 304 304 308 306 302 299 297 298 303 310 301 316 315 319 317 319 320 322 319 304 298 293 290 286 284 279
305 303 302 304 303 302 303 309 311 312 316 310 316 316 316 318 325 325 324 318 314 309 304 295 289 286 278
310 310 311 311 312 312 314 310 308 308 315 309 313 318 315 312 315 319 321 323 319 316 309 302 299 288 283
308 313 317 317 319 318 316 313 310 302 318 310 306 311 300 303 311 315 318 320 318 315 309 303 304 297 291
316 318 320 320 320 317 315 310 309 307 316 315 306 308 306 304 304 314 316 316 314 312 315 312 309 304 295
321 321 322 322 322 322 320 319 317 318 320 320 314 311 305 301 303 309 312 314 309 310 313 310 310 309 307
325 325 327 329 328 328 326 328 324 326 329 326 324 318 310 307 306 301 309 294 311 312 313 309 304 304 305
331 331 332 331 330 331 329 328 323 324 327 331 329 324 317 313 308 311 310 307 312 312 309 305 305 308 306
336 336 334 334 333 333 330 326 325 327 327 332 332 330 329 320 308 304 307 305 309 310 306 298 306 307 298
339 338 337 336 336 335 335 333 329 329 330 332 331 329 315 304 317 305 292 304 309 310 308 300 292 298 304
Wind_Speed_850mb
74 73 70 69 67 60 61 61 69 64 59 59 57 62 64 64 65 66 66 66 65 67 66 65 66 66 66
70 71 72 76 67 66 65 69 69 65 57 63 60 63 61 60 61 65 63 65 68 69 69 67 66 66 66
73 71 77 75 76 74 79 75 73 76 67 71 60 57 56 63 59 60 65 63 62 62 63 63 63 62 62
67 74 75 68 71 81 80 80 84 79 79 64 58 71 69 62 62 61 57 57 57 58 61 63 64 65 64
68 74 67 70 79 75 83 89 85 84 74 72 85 78 76 70 68 61 57 58 62 63 61 62 65 64 64
71 69 77 75 73 72 82 83 85 76 68 96 85 85 80 75 69 65 62 60 58 64 60 58 57 56 57
74 74 74 72 71 74 72 71 83 91 92 95 84 87 76 78 70 65 50 46 52 52 50 54 58 61 61
67 67 62 61 64 68 70 75 83 79 74 78 84 79 83 80 69 50 50 49 46 52 55 52 54 56 58
54 53 52 57 51 54 60 67 79 75 75 71 76 92 90 81 67 65 67 57 54 45 46 47 49 52 59
64 64 57 52 47 49 56 63 71 74 70 68 78 78 62 67 76 77 71 62 54 54 45 42 41 44 50
63 58 55 51 54 56 56 60 67 73 69 58 72 70 60 81 88 84 78 70 64 55 43 40 43 44 53
58 59 58 57 59 59 56 57 57 66 67 56 63 64 65 78 87 88 80 70 64 57 52 54 54 52 52
56 56 57 61 61 62 60 55 58 60 57 57 57 56 55 68 81 83 83 75 53 55 67 67 69 65 66
55 60 59 60 63 62 68 66 74 70 57 58 53 51 60 66 71 81 72 72 71 71 71 77 72 66 65
59 60 62 67 67 65 65 71 71 74 72 58 53 56 61 64 68 70 70 74 76 77 78 80 79 72 69
57 61 69 69 70 67 66 64 67 68 69 66 70 70 70 68 52 63 74 82 81 76 71 75 86 81 73
59 66 68 69 67 67 65 64 66 67 68 72 69 64 72 73 75 53 64 77 71 75 71 75 78 83 72
Wind_Direction_850mb
305 310 314 318 320 317 315 314 314 315 305 302 300 297 296 296 295 293 292 290 288 285 283 279 277 275 273
311 319 320 321 320 319 320 320 315 316 309 303 302 300 297 296 295 294 293 291 287 283 280 279 277 275 274
315 317 319 320 321 322 321 319 319 318 313 314 308 307 304 299 297 293 291 290 286 284 283 282 279 277 274
309 314 317 313 315 316 317 317 318 318 317 317 313 318 314 313 307 309 300 293 289 287 286 283 281 279 277
309 311 310 311 314 315 313 316 315 317 315 316 318 318 318 317 315 311 306 298 292 288 286 283 281 278 277
308 305 306 310 312 311 310 313 310 315 308 311 317 316 320 320 318 313 306 297 293 290 288 284 283 281 279
302 306 308 309 308 309 311 308 302 304 308 306 314 315 321 316 318 318 312 303 296 293 292 288 283 279 277
307 304 304 308 306 302 299 297 298 303 310 301 316 315 319 317 319 320 322 319 304 298 293 290 286 284 279
305 303 302 304 303 302 303 309 311 312 316 310 316 316 316 318 325 325 324 318 314 309 304 295 289 286 278
310 310 311 311 312 312 314 310 308 308 315 309 313 318 315 312 315 319 321 323 319 316 309 302 299 288 283
308 313 317 317 319 318 316 313 310 302 318 310 306 311 300 303 311 315 318 320 318 315 309 303 304 297 291
316 318 320 320 320 317 315 310 309 307 316 315 306 308 306 304 304 314 316 316 314 312 315 312 309 304 295
321 321 322 322 322 322 320 319 317 318 320 320 314 311 305 301 303 309 312 314 309 310 313 310 310 309 307
325 325 327 329 328 328 326 328 324 326 329 326 324 318 310 307 306 301 309 294 311 312 313 309 304 304 305
331 331 332 331 330 331 329 328 323 324 327 331 329 324 317 313 308 311 310 307 312 312 309 305 305 308 306
336 336 334 334 333 333 330 326 325 327 327 332 332 330 329 320 308 304 307 305 309 310 306 298 306 307 298
339 338 337 336 336 335 335 333 329 329 330 332 331 329 315 304 317 305 292 304 309 310 308 300 292 298 304